Location: Erp
(42.9417°N, 1.2009°E)
Time: 11:03:35
(UTC+00:00)

Cosmos 1633 Rocket - Pass Details

Date: 12 January 2026
Orbit: 600 x 616 km, 82.5° (Epoch: 10 February)

Event Time Altitude Azimuth Distance (km) Brightness Sun altitude
Rises 18:17:49 0° 345° (NNW) 2,859 6.5 -17.0°
Reaches altitude 10° 18:20:07 10° 338° (NNW) 1,950 5.7 -17.4°
Maximum altitude 18:24:12 43° 267° (W) 847 4.2 -18.1°
Drops below altitude 10° 18:28:15 10° 196° (SSW) 1,935 6.0 -18.9°
Sets 18:30:31 0° 190° (S) 2,834 6.7 -19.3°
